Findlay, OH

9:58 AM EST on December 09, 2019 (GMT -0500)
Findlay

Weather History for KFDY - November, 2019

Change the Weather History Date:

Saturday, November 16, 2019

  Actual Average Record
Temperature  
Mean Temperature 34 °F -  
Max Temperature 39 °F 47 °F 71 °F (1953)
Min Temperature 30 °F 30 °F 14 °F (1967)
Degree Days  
Heating Degree Days 30    
Moisture  
Dew Point 25 °F    
Average Humidity 70    
Maximum Humidity 82    
Minimum Humidity 55    
Precipitation  
Precipitation 0.00 in - - ()
Sea Level Pressure  
Sea Level Pressure 30.36 in    
Wind  
Wind Speed 9 mph (NE)    
Max Wind Speed 17 mph    
Max Gust Speed 23 mph    
Visibility 9 miles    
Events      
Averages and records for this station are not official NWS values.
T = Trace of Precipitation, MM = Missing Value Source: NWS Daily Summary

Daily Weather History Graph

Daily Weather History Graph

Search for Another Location

Airport or City:

Astronomy

Nov. 16, 2019 Rise Set
Actual Time 7:23 AM EST 5:15 PM EST
Civil Twilight 6:53 AM EST 5:44 PM EST
Nautical Twilight 6:20 AM EST 6:18 PM EST
Astronomical Twilight 5:47 AM EST 6:50 PM EST
Moon 8:46 PM EST (11/16) 11:16 AM EST (11/16)
Length of Visible Light 10h 51m
Length of Day
9h 52m
Waning Gibbous, 82% of the Moon is Illuminated
Nov 16
Waning Gibbous
Nov 19
Last Quarter
Nov 26
New
Dec 4
First Quarter
Dec 12
Full

Hourly Weather History & Observations

Time (EST) Temp. Windchill Dew Point Humidity Pressure Visibility Wind Dir Wind Speed Gust Speed Precip Events Conditions
12:53 AM 30.9 °F 27.5 °F 26.1 °F 82% 30.40 in 6.0 mi ENE 3.5 mph - N/A   Haze
1:53 AM 30.9 °F 27.5 °F 26.1 °F 82% 30.40 in 5.0 mi NNE 3.5 mph - N/A   Haze
2:53 AM 33.1 °F 27.7 °F 27.0 °F 78% 30.40 in 7.0 mi NNE 5.8 mph - N/A   Overcast
3:53 AM 33.1 °F 26.1 °F 27.0 °F 78% 30.38 in 8.0 mi NNE 8.1 mph - N/A   Overcast
4:53 AM 34.0 °F 25.5 °F 28.0 °F 79% 30.39 in 9.0 mi NNE 11.5 mph - N/A   Overcast
5:53 AM 34.0 °F 25.0 °F 28.0 °F 79% 30.40 in 10.0 mi NNE 12.7 mph - N/A   Overcast
6:53 AM 34.0 °F 25.0 °F 26.1 °F 73% 30.41 in 10.0 mi NE 12.7 mph - N/A   Overcast
7:53 AM 33.1 °F 24.9 °F 25.0 °F 72% 30.43 in 10.0 mi NE 10.4 mph - N/A   Clear
8:53 AM 35.1 °F 26.4 °F 26.1 °F 70% 30.43 in 10.0 mi NE 12.7 mph 19.6 mph N/A   Clear
9:53 AM 37.0 °F 29.8 °F 27.0 °F 67% 30.43 in 10.0 mi ENE 10.4 mph - N/A   Clear
10:53 AM 37.9 °F 29.2 °F 27.0 °F 65% 30.43 in 10.0 mi NE 15.0 mph - N/A   Clear
11:53 AM 39.0 °F 31.0 °F 28.0 °F 65% 30.41 in 10.0 mi NNE 13.8 mph - N/A   Partly Cloudy
12:22 PM 37.9 °F 30.5 °F 28.0 °F 68% 30.38 in 10.0 mi NE 11.5 mph - N/A   Mostly Cloudy
12:53 PM 37.9 °F 29.2 °F 28.0 °F 68% 30.38 in 10.0 mi NE 15.0 mph - N/A   Overcast
1:53 PM 39.0 °F 30.3 °F 27.0 °F 62% 30.35 in 10.0 mi NNE 16.1 mph - N/A   Mostly Cloudy
2:53 PM 39.0 °F 29.9 °F 27.0 °F 62% 30.32 in 10.0 mi ENE 17.3 mph 23.0 mph N/A   Scattered Clouds
3:53 PM 37.9 °F 28.9 °F 23.0 °F 55% 30.32 in 10.0 mi NE 16.1 mph - N/A   Clear
4:53 PM 36.0 °F 27.1 °F 21.0 °F 55% 30.32 in 10.0 mi ENE 13.8 mph - N/A   Clear
5:53 PM 34.0 °F 26.6 °F 23.0 °F 64% 30.31 in 10.0 mi NE 9.2 mph - N/A   Clear
6:53 PM 34.0 °F 27.2 °F 25.0 °F 70% 30.30 in 10.0 mi NE 8.1 mph - N/A   Clear
7:53 PM 32.0 °F 25.6 °F 25.0 °F 75% 30.30 in 10.0 mi NNE 6.9 mph - N/A   Clear
8:53 PM 30.9 °F 25.2 °F 24.1 °F 76% 30.28 in 10.0 mi NE 5.8 mph - N/A   Clear
9:53 PM 30.9 °F 23.5 °F 21.9 °F 69% 30.27 in 10.0 mi ENE 8.1 mph - N/A   Clear
10:53 PM 30.0 °F 23.2 °F 21.9 °F 72% 30.24 in 10.0 mi ENE 6.9 mph - N/A   Clear
11:53 PM 30.9 °F 23.5 °F 21.0 °F 67% 30.22 in 10.0 mi ENE 8.1 mph - N/A   Clear